This demonstration page uses our WeatherBlox Daily Observations layout. Learn more.

Left ArrowRight Arrow

44.8408, -93.29828

Hourly Observations for July 1, 2019

Temp ( °F °C ) Dew Point ( °F °C ) Humidity (%) Winds ( mph kmh ) Pressure ( in mb ) Visibility ( mi km ) Precip ( " mm )
12:53 am 00:53 Cloudy with Thunderstorms 68 20 65 18.3 90 90 S 10 17 30.06 1018 4 6 0.14 3.56
1:00 am 01:00 Cloudy with Thunderstorms 68 20 65 18.3 90 90 S 10 17 30.04 1017 5 8 0.01 0.25
1:09 am 01:09 Cloudy with Nearby Thunderstorms 68 20 65 18.3 90 90 S 8 13 30.04 1017 5 8 0.03 0.76
1:19 am 01:19 Cloudy with Light Rain 68 20 65 18.3 90 90 SSW 8 13 30.01 1016 5 8 0.04 1.02
1:31 am 01:31 Cloudy with Nearby Thunderstorms 68 20 65 18.3 90 90 SSW 9 15 29.99 1016 7 11 0.05 1.27
1:46 am 01:46 Cloudy with Light Rain 68 20 65 18.3 90 90 S 14 22 29.97 1015 6 10 0.07 1.78
1:53 am 01:53 Cloudy with Rain 68 20 65 18.3 90 90 S 10 17 29.98 1015 5 8 0.08 2.03
2:24 am 02:24 Partly Cloudy with Thunderstorms 68 20 66 18.9 93 93 SE 15 24 29.92 1013 10 16 0.06 1.52
2:36 am 02:36 Mostly Cloudy with Light Rain 68 20 66 18.9 93 93 S 7 11 29.94 1014 10 16 0.06 1.52
2:53 am 02:53 Mostly Cloudy 68 20 65 18.3 90 90 Calm 29.95 1014 10 16 0.06 1.52
3:53 am 03:53 Partly Cloudy 68 20 66 18.9 93 93 Calm 29.94 1014 10 16 0.01 0.25
4:53 am 04:53 Clear with Light Rain 68 20 66 18.9 93 93 NW 5 7 29.98 1015 8 13 0.02 0.51
5:53 am 05:53 Mostly Cloudy with Rain 70 21.1 66 18.9 87 87 W 20 31 29.98 1015 6 10 0.12 3.05
6:53 am 06:53 Cloudy with Light Rain 70 21.1 66 18.9 87 87 NW 13 20 29.95 1014 10 16 0.09 2.29
7:53 am 07:53 Cloudy 71 21.7 66 18.9 84 84 WSW 5 7 29.98 1015 10 16 0.01 0.25
8:53 am 08:53 Cloudy with Light Rain 70 21.1 67 19.4 90 90 SSW 3 6 30.00 1016 10 16 0.00 0.03
9:53 am 09:53 Cloudy with Light Rain 70 21.1 67 19.4 90 90 S 12 19 29.98 1015 10 16 0.02 0.51
10:53 am 10:53 Cloudy 73 22.8 67 19.4 81 81 S 7 11 29.96 1015 10 16 0.00 0.03
11:53 am 11:53 Cloudy 74 23.3 68 20 82 82 S 7 11 29.95 1014 10 16 0.00 0.00
12:53 pm 12:53 Cloudy 76 24.4 67 19.4 74 74 WSW 8 13 29.97 1015 10 16 0.00 0.00
1:01 pm 13:01 Cloudy 76 24.4 67 19.4 74 74 VRB 6 9 29.95 1014 10 16 0.00 0.00
1:46 pm 13:46 Cloudy 75 23.9 68 20 79 79 WNW 8 13 29.96 1014 10 16 0.00 0.03
1:53 pm 13:53 Cloudy with Light Rain 75 23.9 68 20 79 79 NNW 9 15 29.97 1015 10 16 0.00 0.03
2:53 pm 14:53 Cloudy 76 24.4 68 20 77 77 VRB 5 7 29.96 1014 10 16 0.00 0.03
3:53 pm 15:53 Cloudy 77 25 68 20 74 74 NNE 5 7 29.93 1014 10 16 0.00 0.00
4:53 pm 16:53 Cloudy 75 23.9 69 20.6 82 82 Calm 29.93 1014 10 16 0.00 0.03
5:53 pm 17:53 Cloudy with Rain 73 22.8 69 20.6 87 87 VRB 5 7 29.92 1013 6 10 0.01 0.25
6:53 pm 18:53 Cloudy with Light Rain 74 23.3 69 20.6 85 85 E 6 9 29.90 1013 8 13 0.02 0.51
7:53 pm 19:53 Cloudy 73 22.8 70 21.1 90 90 VRB 6 9 29.90 1013 9 14 0.00 0.03
8:53 pm 20:53 Cloudy with Light Rain 72 22.2 69 20.6 91 91 N 5 7 29.92 1013 6 10 0.05 1.27
9:53 pm 21:53 Cloudy with Rain 70 21.1 68 20 93 93 NE 7 11 29.90 1013 5 8 0.25 6.35
10:53 pm 22:53 Cloudy with Heavy Rain 69 20.6 67 19.4 93 93 NNE 5 7 29.90 1012 3 4 0.40 10.16
10:59 pm 22:59 Cloudy with Heavy Rain 69 20.6 67 19.4 93 93 VRB 3 6 29.89 1012 1 2 0.08 2.03
11:19 pm 23:19 Cloudy with Heavy Rain 69 20.6 67 19.4 93 93 ENE 7 11 29.88 1012 1 2 0.37 9.40
11:28 pm 23:28 Cloudy with Rain 69 20.6 67 19.4 93 93 Calm 29.89 1012 2 3 0.44 11.18
11:36 pm 23:36 Cloudy with Rain 69 20.6 67 19.4 93 93 Calm 29.89 1012 5 8 0.48 12.19
11:46 pm 23:46 Cloudy with Rain 69 20.6 67 19.4 93 93 NE 3 6 29.89 1012 4 6 0.51 12.95
11:53 pm 23:53 Cloudy with Rain 69 20.6 68 20 96 96 NNE 3 6 29.89 1012 3 5 0.53 13.46

Powered by AerisWeather